owner,sensor,date,latitude,longitude,vertical_datum,sea_water_practical_salinity,qcFlag 
NERRS,ioos:station:NOAA.NERRS:gndpcwq:1,2016-01-10T19:00:00Z,30.3486,-88.4185,1.22,14.1,1111122 
NERRS,ioos:station:NOAA.NERRS:gndpcwq:1,2016-01-10T20:00:00Z,30.3486,-88.4185,1.31,14.7,1111122 
NERRS,ioos:station:NOAA.NERRS:gndpcwq:1,2016-01-10T21:00:00Z,30.3486,-88.4185,1.34,14.5,1111122 
NERRS,ioos:station:NOAA.NERRS:gndpcwq:1,2016-01-10T22:00:00Z,30.3486,-88.4185,1.36,15.1,1111122 
NERRS,ioos:station:NOAA.NERRS:gndpcwq:1,2016-01-10T23:00:00Z,30.3486,-88.4185,1.38,19.2,1111122 
NERRS,ioos:station:NOAA.NERRS:gndpcwq:1,2016-01-11T00:00:00Z,30.3486,-88.4185,1.44,20.9,1111122 
NERRS,ioos:station:NOAA.NERRS:gndpcwq:1,2016-01-11T01:00:00Z,30.3486,-88.4185,1.48,20.9,1111122 
NERRS,ioos:station:NOAA.NERRS:gndpcwq:1,2016-01-11T02:00:00Z,30.3486,-88.4185,1.55,19.8,1111122 
NERRS,ioos:station:NOAA.NERRS:gndpcwq:1,2016-01-11T03:00:00Z,30.3486,-88.4185,1.57,20.4,1111122 
NERRS,ioos:station:NOAA.NERRS:gndpcwq:1,2016-01-11T04:00:00Z,30.3486,-88.4185,1.57,20.7,1111122 
NERRS,ioos:station:NOAA.NERRS:gndpcwq:1,2016-01-11T05:00:00Z,30.3486,-88.4185,1.54,21.7,1111122 
NERRS,ioos:station:NOAA.NERRS:gndpcwq:1,2016-01-11T06:00:00Z,30.3486,-88.4185,1.53,21.8,1111122 
NERRS,ioos:station:NOAA.NERRS:gndpcwq:1,2016-01-11T07:00:00Z,30.3486,-88.4185,1.51,22.0,1111122 
NERRS,ioos:station:NOAA.NERRS:gndpcwq:1,2016-01-11T08:00:00Z,30.3486,-88.4185,1.42,22.0,1111122 
NERRS,ioos:station:NOAA.NERRS:gndpcwq:1,2016-01-11T09:00:00Z,30.3486,-88.4185,1.35,21.8,1111122 
NERRS,ioos:station:NOAA.NERRS:gndpcwq:1,2016-01-11T10:00:00Z,30.3486,-88.4185,1.23,21.4,1111122 
NERRS,ioos:station:NOAA.NERRS:gndpcwq:1,2016-01-11T11:00:00Z,30.3486,-88.4185,1.14,21.6,1111122 
NERRS,ioos:station:NOAA.NERRS:gndpcwq:1,2016-01-11T12:00:00Z,30.3486,-88.4185,1.07,18.9,1111122 
NERRS,ioos:station:NOAA.NERRS:gndpcwq:1,2016-01-11T13:00:00Z,30.3486,-88.4185,1.08,20.0,1111122 
NERRS,ioos:station:NOAA.NERRS:gndpcwq:1,2016-01-11T14:00:00Z,30.3486,-88.4185,1.11,20.6,1111122 
NERRS,ioos:station:NOAA.NERRS:gndpcwq:1,2016-01-11T15:00:00Z,30.3486,-88.4185,1.15,20.6,1111122 
NERRS,ioos:station:NOAA.NERRS:gndpcwq:1,2016-01-11T16:00:00Z,30.3486,-88.4185,1.2,21.4,1111122 
NERRS,ioos:station:NOAA.NERRS:gndpcwq:1,2016-01-11T17:00:00Z,30.3486,-88.4185,1.25,21.5,1111122 
NERRS,ioos:station:NOAA.NERRS:gndpcwq:1,2016-01-11T18:00:00Z,30.3486,-88.4185,1.3,21.6,1111122 
NERRS,ioos:station:NOAA.NERRS:gndpcwq:1,2016-01-11T19:00:00Z,30.3486,-88.4185,1.33,21.5,1111122 
NERRS,ioos:station:NOAA.NERRS:gndpcwq:1,2016-01-11T20:00:00Z,30.3486,-88.4185,1.35,21.6,1111122 
NERRS,ioos:station:NOAA.NERRS:gndpcwq:1,2016-01-11T21:00:00Z,30.3486,-88.4185,1.4,21.6,1111122 
NERRS,ioos:station:NOAA.NERRS:gndpcwq:1,2016-01-11T22:00:00Z,30.3486,-88.4185,1.44,21.6,1111122 
NERRS,ioos:station:NOAA.NERRS:gndpcwq:1,2016-01-11T23:00:00Z,30.3486,-88.4185,1.49,21.6,1111122 
NERRS,ioos:station:NOAA.NERRS:gndpcwq:1,2016-01-12T00:00:00Z,30.3486,-88.4185,1.51,21.6,1111122 
NERRS,ioos:station:NOAA.NERRS:gndpcwq:1,2016-01-12T01:00:00Z,30.3486,-88.4185,1.58,20.4,1111122 
NERRS,ioos:station:NOAA.NERRS:gndpcwq:1,2016-01-12T02:00:00Z,30.3486,-88.4185,1.65,20.3,1111122 
NERRS,ioos:station:NOAA.NERRS:gndpcwq:1,2016-01-12T03:00:00Z,30.3486,-88.4185,1.71,21.0,1111122 
NERRS,ioos:station:NOAA.NERRS:gndpcwq:1,2016-01-12T04:00:00Z,30.3486,-88.4185,1.73,20.9,1111122 
NERRS,ioos:station:NOAA.NERRS:gndpcwq:1,2016-01-12T05:00:00Z,30.3486,-88.4185,1.72,20.7,1111122 
NERRS,ioos:station:NOAA.NERRS:gndpcwq:1,2016-01-12T06:00:00Z,30.3486,-88.4185,1.65,20.6,1111122 
NERRS,ioos:station:NOAA.NERRS:gndpcwq:1,2016-01-12T07:00:00Z,30.3486,-88.4185,1.59,20.5,1111122 
NERRS,ioos:station:NOAA.NERRS:gndpcwq:1,2016-01-12T08:00:00Z,30.3486,-88.4185,1.55,20.2,1111122 
NERRS,ioos:station:NOAA.NERRS:gndpcwq:1,2016-01-12T09:00:00Z,30.3486,-88.4185,1.49,20.2,1111122 
NERRS,ioos:station:NOAA.NERRS:gndpcwq:1,2016-01-12T10:00:00Z,30.3486,-88.4185,1.4,20.1,1111122 
NERRS,ioos:station:NOAA.NERRS:gndpcwq:1,2016-01-12T11:00:00Z,30.3486,-88.4185,1.28,20.1,1111122 
NERRS,ioos:station:NOAA.NERRS:gndpcwq:1,2016-01-12T12:00:00Z,30.3486,-88.4185,1.21,20.1,1111122 
NERRS,ioos:station:NOAA.NERRS:gndpcwq:1,2016-01-12T13:00:00Z,30.3486,-88.4185,1.15,20.2,1111122 
NERRS,ioos:station:NOAA.NERRS:gndpcwq:1,2016-01-12T14:00:00Z,30.3486,-88.4185,1.14,20.3,1111122 
NERRS,ioos:station:NOAA.NERRS:gndpcwq:1,2016-01-12T15:00:00Z,30.3486,-88.4185,1.16,20.3,1111122 
NERRS,ioos:station:NOAA.NERRS:gndpcwq:1,2016-01-12T16:00:00Z,30.3486,-88.4185,1.17,20.2,1111122 
NERRS,ioos:station:NOAA.NERRS:gndpcwq:1,2016-01-12T18:00:00Z,30.3486,-88.4185,1.21,20.0,1111122 
NERRS,ioos:station:NOAA.NERRS:gndpcwq:1,2016-01-12T19:00:00Z,30.3486,-88.4185,1.25,19.9,1111122 
NERRS,ioos:station:NOAA.NERRS:gndpcwq:1,2016-01-12T21:00:00Z,30.3486,-88.4185,1.37,19.8,1111122 
NERRS,ioos:station:NOAA.NERRS:gndpcwq:1,2016-01-12T23:00:00Z,30.3486,-88.4185,1.41,18.8,1111122 
NERRS,ioos:station:NOAA.NERRS:gndpcwq:1,2016-01-13T00:00:00Z,30.3486,-88.4185,1.42,18.5,1111122 
NERRS,ioos:station:NOAA.NERRS:gndpcwq:1,2016-01-13T01:00:00Z,30.3486,-88.4185,1.47,18.6,1111122 
NERRS,ioos:station:NOAA.NERRS:gndpcwq:1,2016-01-13T02:00:00Z,30.3486,-88.4185,1.54,18.1,1111122 
NERRS,ioos:station:NOAA.NERRS:gndpcwq:1,2016-01-13T03:00:00Z,30.3486,-88.4185,1.61,18.0,1111122 
NERRS,ioos:station:NOAA.NERRS:gndpcwq:1,2016-01-13T04:00:00Z,30.3486,-88.4185,1.63,18.3,1111122 
NERRS,ioos:station:NOAA.NERRS:gndpcwq:1,2016-01-13T05:00:00Z,30.3486,-88.4185,1.63,18.3,1111122 
NERRS,ioos:station:NOAA.NERRS:gndpcwq:1,2016-01-13T06:00:00Z,30.3486,-88.4185,1.56,18.3,1111122 
NERRS,ioos:station:NOAA.NERRS:gndpcwq:1,2016-01-13T07:00:00Z,30.3486,-88.4185,1.54,18.3,1111122 
NERRS,ioos:station:NOAA.NERRS:gndpcwq:1,2016-01-13T08:00:00Z,30.3486,-88.4185,1.51,18.3,1111122 
NERRS,ioos:station:NOAA.NERRS:gndpcwq:1,2016-01-13T09:00:00Z,30.3486,-88.4185,1.48,18.3,1111122 
NERRS,ioos:station:NOAA.NERRS:gndpcwq:1,2016-01-13T10:00:00Z,30.3486,-88.4185,1.39,18.1,1111122 
NERRS,ioos:station:NOAA.NERRS:gndpcwq:1,2016-01-13T11:00:00Z,30.3486,-88.4185,1.31,17.6,1111122 
NERRS,ioos:station:NOAA.NERRS:gndpcwq:1,2016-01-13T12:00:00Z,30.3486,-88.4185,1.22,18.3,1111122 
NERRS,ioos:station:NOAA.NERRS:gndpcwq:1,2016-01-13T13:00:00Z,30.3486,-88.4185,1.16,18.4,1111122 
NERRS,ioos:station:NOAA.NERRS:gndpcwq:1,2016-01-13T14:00:00Z,30.3486,-88.4185,1.13,18.8,1111122 
NERRS,ioos:station:NOAA.NERRS:gndpcwq:1,2016-01-13T15:00:00Z,30.3486,-88.4185,1.2,18.5,1111122 
NERRS,ioos:station:NOAA.NERRS:gndpcwq:1,2016-01-13T17:00:00Z,30.3486,-88.4185,1.3,18.7,1111122 
NERRS,ioos:station:NOAA.NERRS:gndpcwq:1,2016-01-13T18:00:00Z,30.3486,-88.4185,1.34,19.0,1111122 
NERRS,ioos:station:NOAA.NERRS:gndpcwq:1,2016-01-13T19:00:00Z,30.3486,-88.4185,1.37,19.0,1111122 
NERRS,ioos:station:NOAA.NERRS:gndpcwq:1,2016-01-13T20:00:00Z,30.3486,-88.4185,1.42,18.8,1111122 
NERRS,ioos:station:NOAA.NERRS:gndpcwq:1,2016-01-13T21:00:00Z,30.3486,-88.4185,1.47,20.1,1111122 
NERRS,ioos:station:NOAA.NERRS:gndpcwq:1,2016-01-13T22:00:00Z,30.3486,-88.4185,1.49,20.0,1111122 
NERRS,ioos:station:NOAA.NERRS:gndpcwq:1,2016-01-13T23:00:00Z,30.3486,-88.4185,1.48,19.9,1111122 
NERRS,ioos:station:NOAA.NERRS:gndpcwq:1,2016-01-14T00:00:00Z,30.3486,-88.4185,1.48,19.6,1111122 
NERRS,ioos:station:NOAA.NERRS:gndpcwq:1,2016-01-14T01:00:00Z,30.3486,-88.4185,1.5,19.4,1111122 
NERRS,ioos:station:NOAA.NERRS:gndpcwq:1,2016-01-14T02:00:00Z,30.3486,-88.4185,1.56,19.3,1111122 
NERRS,ioos:station:NOAA.NERRS:gndpcwq:1,2016-01-14T03:00:00Z,30.3486,-88.4185,1.61,19.3,1111122 
NERRS,ioos:station:NOAA.NERRS:gndpcwq:1,2016-01-14T04:00:00Z,30.3486,-88.4185,1.65,19.2,1111122 
NERRS,ioos:station:NOAA.NERRS:gndpcwq:1,2016-01-14T05:00:00Z,30.3486,-88.4185,1.63,19.1,1111122 
NERRS,ioos:station:NOAA.NERRS:gndpcwq:1,2016-01-14T06:00:00Z,30.3486,-88.4185,1.59,19.6,1111122 
NERRS,ioos:station:NOAA.NERRS:gndpcwq:1,2016-01-14T07:00:00Z,30.3486,-88.4185,1.54,19.7,1111122 
NERRS,ioos:station:NOAA.NERRS:gndpcwq:1,2016-01-14T08:00:00Z,30.3486,-88.4185,1.54,19.5,1111122 
NERRS,ioos:station:NOAA.NERRS:gndpcwq:1,2016-01-14T09:00:00Z,30.3486,-88.4185,1.53,19.5,1111122 
NERRS,ioos:station:NOAA.NERRS:gndpcwq:1,2016-01-14T10:00:00Z,30.3486,-88.4185,1.5,19.7,1111122 
NERRS,ioos:station:NOAA.NERRS:gndpcwq:1,2016-01-14T11:00:00Z,30.3486,-88.4185,1.42,19.7,1111122 
NERRS,ioos:station:NOAA.NERRS:gndpcwq:1,2016-01-14T12:00:00Z,30.3486,-88.4185,1.36,19.7,1111122 
NERRS,ioos:station:NOAA.NERRS:gndpcwq:1,2016-01-14T13:00:00Z,30.3486,-88.4185,1.29,19.4,1111122 
NERRS,ioos:station:NOAA.NERRS:gndpcwq:1,2016-01-14T14:00:00Z,30.3486,-88.4185,1.3,19.3,1111122 
NERRS,ioos:station:NOAA.NERRS:gndpcwq:1,2016-01-14T15:00:00Z,30.3486,-88.4185,1.33,19.0,1111122 
NERRS,ioos:station:NOAA.NERRS:gndpcwq:1,2016-01-14T16:00:00Z,30.3486,-88.4185,1.36,18.9,1111122 
NERRS,ioos:station:NOAA.NERRS:gndpcwq:1,2016-01-14T17:00:00Z,30.3486,-88.4185,1.38,18.0,1111122 
NERRS,ioos:station:NOAA.NERRS:gndpcwq:1,2016-01-14T18:00:00Z,30.3486,-88.4185,1.42,18.1,1111122 
NERRS,ioos:station:NOAA.NERRS:gndpcwq:1,2016-01-14T19:00:00Z,30.3486,-88.4185,1.43,18.0,1111122 
NERRS,ioos:station:NOAA.NERRS:gndpcwq:1,2016-01-14T20:00:00Z,30.3486,-88.4185,1.46,17.7,1111122 
NERRS,ioos:station:NOAA.NERRS:gndpcwq:1,2016-01-14T21:00:00Z,30.3486,-88.4185,1.5,17.4,1111122 
NERRS,ioos:station:NOAA.NERRS:gndpcwq:1,2016-01-14T22:00:00Z,30.3486,-88.4185,1.52,17.6,1111122 
NERRS,ioos:station:NOAA.NERRS:gndpcwq:1,2016-01-14T23:00:00Z,30.3486,-88.4185,1.52,17.6,1111122 
NERRS,ioos:station:NOAA.NERRS:gndpcwq:1,2016-01-15T00:00:00Z,30.3486,-88.4185,1.52,17.6,1111122 
NERRS,ioos:station:NOAA.NERRS:gndpcwq:1,2016-01-15T01:00:00Z,30.3486,-88.4185,1.5,16.6,1111122 
NERRS,ioos:station:NOAA.NERRS:gndpcwq:1,2016-01-15T02:00:00Z,30.3486,-88.4185,1.49,15.9,1111122 
NERRS,ioos:station:NOAA.NERRS:gndpcwq:1,2016-01-15T03:00:00Z,30.3486,-88.4185,1.52,15.7,1111122 
NERRS,ioos:station:NOAA.NERRS:gndpcwq:1,2016-01-15T04:00:00Z,30.3486,-88.4185,1.55,16.2,1111122 
NERRS,ioos:station:NOAA.NERRS:gndpcwq:1,2016-01-15T05:00:00Z,30.3486,-88.4185,1.62,14.5,1111122 
NERRS,ioos:station:NOAA.NERRS:gndpcwq:1,2016-01-15T06:00:00Z,30.3486,-88.4185,1.53,13.6,1111122 
NERRS,ioos:station:NOAA.NERRS:gndpcwq:1,2016-01-15T07:00:00Z,30.3486,-88.4185,1.49,14.2,1111122 
NERRS,ioos:station:NOAA.NERRS:gndpcwq:1,2016-01-15T08:00:00Z,30.3486,-88.4185,1.5,15.0,1111122 
NERRS,ioos:station:NOAA.NERRS:gndpcwq:1,2016-01-15T09:00:00Z,30.3486,-88.4185,1.49,14.8,1111122 
NERRS,ioos:station:NOAA.NERRS:gndpcwq:1,2016-01-15T10:00:00Z,30.3486,-88.4185,1.4,15.8,1111122 
NERRS,ioos:station:NOAA.NERRS:gndpcwq:1,2016-01-15T11:00:00Z,30.3486,-88.4185,1.28,16.2,1111122 
NERRS,ioos:station:NOAA.NERRS:gndpcwq:1,2016-01-15T12:00:00Z,30.3486,-88.4185,1.3,16.3,1111122 
NERRS,ioos:station:NOAA.NERRS:gndpcwq:1,2016-01-15T13:00:00Z,30.3486,-88.4185,1.43,16.2,1111122 
NERRS,ioos:station:NOAA.NERRS:gndpcwq:1,2016-01-15T14:00:00Z,30.3486,-88.4185,1.5,15.5,1111122 
NERRS,ioos:station:NOAA.NERRS:gndpcwq:1,2016-01-15T15:00:00Z,30.3486,-88.4185,1.53,15.6,1111122 
NERRS,ioos:station:NOAA.NERRS:gndpcwq:1,2016-01-15T16:00:00Z,30.3486,-88.4185,1.43,16.0,1111122 
NERRS,ioos:station:NOAA.NERRS:gndpcwq:1,2016-01-15T17:00:00Z,30.3486,-88.4185,1.43,16.1,1111122 
NERRS,ioos:station:NOAA.NERRS:gndpcwq:1,2016-01-15T18:00:00Z,30.3486,-88.4185,1.55,15.1,1111122 
NERRS,ioos:station:NOAA.NERRS:gndpcwq:1,2016-01-15T19:00:00Z,30.3486,-88.4185,1.55,15.1,1111122 
NERRS,ioos:station:NOAA.NERRS:gndpcwq:1,2016-01-15T20:00:00Z,30.3486,-88.4185,1.54,15.0,1111122 
NERRS,ioos:station:NOAA.NERRS:gndpcwq:1,2016-01-15T21:00:00Z,30.3486,-88.4185,1.53,15.1,1111122 
NERRS,ioos:station:NOAA.NERRS:gndpcwq:1,2016-01-15T22:00:00Z,30.3486,-88.4185,1.61,15.0,1111122 
NERRS,ioos:station:NOAA.NERRS:gndpcwq:1,2016-01-15T23:00:00Z,30.3486,-88.4185,1.59,15.1,1111122 
NERRS,ioos:station:NOAA.NERRS:gndpcwq:1,2016-01-16T00:00:00Z,30.3486,-88.4185,1.62,15.1,1111122 
NERRS,ioos:station:NOAA.NERRS:gndpcwq:1,2016-01-16T01:00:00Z,30.3486,-88.4185,1.57,15.1,1111122 
NERRS,ioos:station:NOAA.NERRS:gndpcwq:1,2016-01-16T02:00:00Z,30.3486,-88.4185,1.51,15.3,1111122 
NERRS,ioos:station:NOAA.NERRS:gndpcwq:1,2016-01-16T03:00:00Z,30.3486,-88.4185,1.5,15.7,1111122 
NERRS,ioos:station:NOAA.NERRS:gndpcwq:1,2016-01-16T04:00:00Z,30.3486,-88.4185,1.48,15.6,1111122 
NERRS,ioos:station:NOAA.NERRS:gndpcwq:1,2016-01-16T05:00:00Z,30.3486,-88.4185,1.46,15.3,1111122 
NERRS,ioos:station:NOAA.NERRS:gndpcwq:1,2016-01-16T06:00:00Z,30.3486,-88.4185,1.43,15.3,1111122 
NERRS,ioos:station:NOAA.NERRS:gndpcwq:1,2016-01-16T07:00:00Z,30.3486,-88.4185,1.42,15.3,1111122 
NERRS,ioos:station:NOAA.NERRS:gndpcwq:1,2016-01-16T08:00:00Z,30.3486,-88.4185,1.39,15.3,1111122 
NERRS,ioos:station:NOAA.NERRS:gndpcwq:1,2016-01-16T09:00:00Z,30.3486,-88.4185,1.36,15.3,1111122 
NERRS,ioos:station:NOAA.NERRS:gndpcwq:1,2016-01-16T10:00:00Z,30.3486,-88.4185,1.36,15.3,1111122 
NERRS,ioos:station:NOAA.NERRS:gndpcwq:1,2016-01-16T11:00:00Z,30.3486,-88.4185,1.39,15.3,1111122 
NERRS,ioos:station:NOAA.NERRS:gndpcwq:1,2016-01-16T12:00:00Z,30.3486,-88.4185,1.37,15.4,1111122 
NERRS,ioos:station:NOAA.NERRS:gndpcwq:1,2016-01-16T13:00:00Z,30.3486,-88.4185,1.34,15.3,1111122 
NERRS,ioos:station:NOAA.NERRS:gndpcwq:1,2016-01-16T14:00:00Z,30.3486,-88.4185,1.31,15.3,1111122 
NERRS,ioos:station:NOAA.NERRS:gndpcwq:1,2016-01-16T15:00:00Z,30.3486,-88.4185,1.31,15.3,1111122 
NERRS,ioos:station:NOAA.NERRS:gndpcwq:1,2016-01-16T16:00:00Z,30.3486,-88.4185,1.36,15.3,1111122 
NERRS,ioos:station:NOAA.NERRS:gndpcwq:1,2016-01-16T17:00:00Z,30.3486,-88.4185,1.39,15.3,1111122 
NERRS,ioos:station:NOAA.NERRS:gndpcwq:1,2016-01-16T18:00:00Z,30.3486,-88.4185,1.44,15.4,1111122 
NERRS,ioos:station:NOAA.NERRS:gndpcwq:1,2016-01-16T19:00:00Z,30.3486,-88.4185,1.48,15.4,1111122 
NERRS,ioos:station:NOAA.NERRS:gndpcwq:1,2016-01-16T20:00:00Z,30.3486,-88.4185,1.51,15.4,1111122 
NERRS,ioos:station:NOAA.NERRS:gndpcwq:1,2016-01-16T21:00:00Z,30.3486,-88.4185,1.53,15.3,1111122 
NERRS,ioos:station:NOAA.NERRS:gndpcwq:1,2016-01-16T22:00:00Z,30.3486,-88.4185,1.54,15.3,1111122 
NERRS,ioos:station:NOAA.NERRS:gndpcwq:1,2016-01-16T23:00:00Z,30.3486,-88.4185,1.54,15.2,1111122 
NERRS,ioos:station:NOAA.NERRS:gndpcwq:1,2016-01-17T00:00:00Z,30.3486,-88.4185,1.54,15.2,1111122 
NERRS,ioos:station:NOAA.NERRS:gndpcwq:1,2016-01-17T01:00:00Z,30.3486,-88.4185,1.54,15.2,1111122 
NERRS,ioos:station:NOAA.NERRS:gndpcwq:1,2016-01-17T02:00:00Z,30.3486,-88.4185,1.5,15.2,1111122 
NERRS,ioos:station:NOAA.NERRS:gndpcwq:1,2016-01-17T03:00:00Z,30.3486,-88.4185,1.53,15.1,1111122 
NERRS,ioos:station:NOAA.NERRS:gndpcwq:1,2016-01-17T04:00:00Z,30.3486,-88.4185,1.48,15.2,1111122 
NERRS,ioos:station:NOAA.NERRS:gndpcwq:1,2016-01-17T05:00:00Z,30.3486,-88.4185,1.41,15.3,1111122 
NERRS,ioos:station:NOAA.NERRS:gndpcwq:1,2016-01-17T06:00:00Z,30.3486,-88.4185,1.25,15.4,1111122 
NERRS,ioos:station:NOAA.NERRS:gndpcwq:1,2016-01-17T08:00:00Z,30.3486,-88.4185,1.22,15.4,1111122 
NERRS,ioos:station:NOAA.NERRS:gndpcwq:1,2016-01-17T09:00:00Z,30.3486,-88.4185,1.29,15.2,1111122 
NERRS,ioos:station:NOAA.NERRS:gndpcwq:1,2016-01-17T10:00:00Z,30.3486,-88.4185,1.31,15.2,1111122 
NERRS,ioos:station:NOAA.NERRS:gndpcwq:1,2016-01-17T12:00:00Z,30.3486,-88.4185,1.14,15.2,1111122 
NERRS,ioos:station:NOAA.NERRS:gndpcwq:1,2016-01-17T13:00:00Z,30.3486,-88.4185,1.09,15.3,1111122 
NERRS,ioos:station:NOAA.NERRS:gndpcwq:1,2016-01-17T14:00:00Z,30.3486,-88.4185,1.23,15.4,1111122 
NERRS,ioos:station:NOAA.NERRS:gndpcwq:1,2016-01-17T15:00:00Z,30.3486,-88.4185,1.33,15.5,1111122 
NERRS,ioos:station:NOAA.NERRS:gndpcwq:1,2016-01-17T16:00:00Z,30.3486,-88.4185,1.28,15.5,1111122 
NERRS,ioos:station:NOAA.NERRS:gndpcwq:1,2016-01-17T17:00:00Z,30.3486,-88.4185,1.23,15.4,1111122 
NERRS,ioos:station:NOAA.NERRS:gndpcwq:1,2016-01-17T18:00:00Z,30.3486,-88.4185,1.32,15.4,1111122 
NERRS,ioos:station:NOAA.NERRS:gndpcwq:1,2016-01-17T19:00:00Z,30.3486,-88.4185,1.42,15.4,1111122 
NERRS,ioos:station:NOAA.NERRS:gndpcwq:1,2016-01-17T20:00:00Z,30.3486,-88.4185,1.53,15.4,1111122 
NERRS,ioos:station:NOAA.NERRS:gndpcwq:1,2016-01-17T21:00:00Z,30.3486,-88.4185,1.53,15.4,1111122 
NERRS,ioos:station:NOAA.NERRS:gndpcwq:1,2016-01-17T22:00:00Z,30.3486,-88.4185,1.49,15.4,1111122 
NERRS,ioos:station:NOAA.NERRS:gndpcwq:1,2016-01-17T23:00:00Z,30.3486,-88.4185,1.46,15.5,1111122 
NERRS,ioos:station:NOAA.NERRS:gndpcwq:1,2016-01-18T00:00:00Z,30.3486,-88.4185,1.44,15.5,1111122 
NERRS,ioos:station:NOAA.NERRS:gndpcwq:1,2016-01-18T01:00:00Z,30.3486,-88.4185,1.45,15.5,1111122 
NERRS,ioos:station:NOAA.NERRS:gndpcwq:1,2016-01-18T02:00:00Z,30.3486,-88.4185,1.42,15.5,1111122 
NERRS,ioos:station:NOAA.NERRS:gndpcwq:1,2016-01-18T03:00:00Z,30.3486,-88.4185,1.36,19.1,1111122 
NERRS,ioos:station:NOAA.NERRS:gndpcwq:1,2016-01-18T04:00:00Z,30.3486,-88.4185,1.29,19.3,1111122 
NERRS,ioos:station:NOAA.NERRS:gndpcwq:1,2016-01-18T05:00:00Z,30.3486,-88.4185,1.24,19.2,1111122 
NERRS,ioos:station:NOAA.NERRS:gndpcwq:1,2016-01-18T06:00:00Z,30.3486,-88.4185,1.2,21.4,1111122 
NERRS,ioos:station:NOAA.NERRS:gndpcwq:1,2016-01-18T07:00:00Z,30.3486,-88.4185,1.16,23.2,1111122 
NERRS,ioos:station:NOAA.NERRS:gndpcwq:1,2016-01-18T08:00:00Z,30.3486,-88.4185,1.13,24.0,1111122 
NERRS,ioos:station:NOAA.NERRS:gndpcwq:1,2016-01-18T09:00:00Z,30.3486,-88.4185,1.11,24.2,1111122 
NERRS,ioos:station:NOAA.NERRS:gndpcwq:1,2016-01-18T10:00:00Z,30.3486,-88.4185,1.12,24.3,1111122 
NERRS,ioos:station:NOAA.NERRS:gndpcwq:1,2016-01-18T11:00:00Z,30.3486,-88.4185,1.13,24.4,1111122 
NERRS,ioos:station:NOAA.NERRS:gndpcwq:1,2016-01-18T12:00:00Z,30.3486,-88.4185,1.17,24.4,1111122 
NERRS,ioos:station:NOAA.NERRS:gndpcwq:1,2016-01-18T13:00:00Z,30.3486,-88.4185,1.21,25.0,1111122 
NERRS,ioos:station:NOAA.NERRS:gndpcwq:1,2016-01-18T14:00:00Z,30.3486,-88.4185,1.26,25.4,1111122 
NERRS,ioos:station:NOAA.NERRS:gndpcwq:1,2016-01-18T15:00:00Z,30.3486,-88.4185,1.32,25.8,1111122 
NERRS,ioos:station:NOAA.NERRS:gndpcwq:1,2016-01-18T16:00:00Z,30.3486,-88.4185,1.36,26.8,1111122 
NERRS,ioos:station:NOAA.NERRS:gndpcwq:1,2016-01-18T17:00:00Z,30.3486,-88.4185,1.4,27.4,1111122 
NERRS,ioos:station:NOAA.NERRS:gndpcwq:1,2016-01-18T18:00:00Z,30.3486,-88.4185,1.42,27.4,1111122 
NERRS,ioos:station:NOAA.NERRS:gndpcwq:1,2016-01-18T19:00:00Z,30.3486,-88.4185,1.46,27.2,1111122 
NERRS,ioos:station:NOAA.NERRS:gndpcwq:1,2016-01-18T21:00:00Z,30.3486,-88.4185,1.52,26.0,1111122 
NERRS,ioos:station:NOAA.NERRS:gndpcwq:1,2016-01-18T22:00:00Z,30.3486,-88.4185,1.56,25.3,1111122 
NERRS,ioos:station:NOAA.NERRS:gndpcwq:1,2016-01-19T00:00:00Z,30.3486,-88.4185,1.55,24.8,1111122 
NERRS,ioos:station:NOAA.NERRS:gndpcwq:1,2016-01-19T01:00:00Z,30.3486,-88.4185,1.52,24.7,1111122 
NERRS,ioos:station:NOAA.NERRS:gndpcwq:1,2016-01-19T02:00:00Z,30.3486,-88.4185,1.48,24.5,1111122 
NERRS,ioos:station:NOAA.NERRS:gndpcwq:1,2016-01-19T04:00:00Z,30.3486,-88.4185,1.4,24.0,1111122 
NERRS,ioos:station:NOAA.NERRS:gndpcwq:1,2016-01-19T05:00:00Z,30.3486,-88.4185,1.31,23.8,1111122 
NERRS,ioos:station:NOAA.NERRS:gndpcwq:1,2016-01-19T06:00:00Z,30.3486,-88.4185,1.21,23.8,1111122 
NERRS,ioos:station:NOAA.NERRS:gndpcwq:1,2016-01-19T07:00:00Z,30.3486,-88.4185,1.12,23.9,1111122 
NERRS,ioos:station:NOAA.NERRS:gndpcwq:1,2016-01-19T08:00:00Z,30.3486,-88.4185,1.05,24.4,1111122 
NERRS,ioos:station:NOAA.NERRS:gndpcwq:1,2016-01-19T09:00:00Z,30.3486,-88.4185,1.01,24.9,1111122 
NERRS,ioos:station:NOAA.NERRS:gndpcwq:1,2016-01-19T10:00:00Z,30.3486,-88.4185,1.0,25.3,1111122 
NERRS,ioos:station:NOAA.NERRS:gndpcwq:1,2016-01-19T11:00:00Z,30.3486,-88.4185,0.98,25.5,1111122 
NERRS,ioos:station:NOAA.NERRS:gndpcwq:1,2016-01-19T12:00:00Z,30.3486,-88.4185,0.98,25.9,1111122 
NERRS,ioos:station:NOAA.NERRS:gndpcwq:1,2016-01-19T13:00:00Z,30.3486,-88.4185,1.03,26.5,1111122 
NERRS,ioos:station:NOAA.NERRS:gndpcwq:1,2016-01-19T14:00:00Z,30.3486,-88.4185,1.1,26.4,1111122 
NERRS,ioos:station:NOAA.NERRS:gndpcwq:1,2016-01-19T15:00:00Z,30.3486,-88.4185,1.16,26.6,1111122 
NERRS,ioos:station:NOAA.NERRS:gndpcwq:1,2016-01-19T16:00:00Z,30.3486,-88.4185,1.24,26.3,1111122 
NERRS,ioos:station:NOAA.NERRS:gndpcwq:1,2016-01-19T17:00:00Z,30.3486,-88.4185,1.29,26.8,1111122 
NERRS,ioos:station:NOAA.NERRS:gndpcwq:1,2016-01-19T18:00:00Z,30.3486,-88.4185,1.31,27.2,1111122 
NERRS,ioos:station:NOAA.NERRS:gndpcwq:1,2016-01-19T19:00:00Z,30.3486,-88.4185,1.36,27.5,1111122 
NERRS,ioos:station:NOAA.NERRS:gndpcwq:1,2016-01-19T20:00:00Z,30.3486,-88.4185,1.41,27.8,1111122 
NERRS,ioos:station:NOAA.NERRS:gndpcwq:1,2016-01-19T21:00:00Z,30.3486,-88.4185,1.46,27.8,1111122 
NERRS,ioos:station:NOAA.NERRS:gndpcwq:1,2016-01-19T22:00:00Z,30.3486,-88.4185,1.52,27.5,1111122 
NERRS,ioos:station:NOAA.NERRS:gndpcwq:1,2016-01-19T23:00:00Z,30.3486,-88.4185,1.57,27.4,1111122 
NERRS,ioos:station:NOAA.NERRS:gndpcwq:1,2016-01-20T01:00:00Z,30.3486,-88.4185,1.61,27.2,1111122 
NERRS,ioos:station:NOAA.NERRS:gndpcwq:1,2016-01-20T03:00:00Z,30.3486,-88.4185,1.59,27.2,1111122 
NERRS,ioos:station:NOAA.NERRS:gndpcwq:1,2016-01-20T04:00:00Z,30.3486,-88.4185,1.54,27.1,1111122 
NERRS,ioos:station:NOAA.NERRS:gndpcwq:1,2016-01-20T05:00:00Z,30.3486,-88.4185,1.45,27.0,1111122 
NERRS,ioos:station:NOAA.NERRS:gndpcwq:1,2016-01-20T07:00:00Z,30.3486,-88.4185,1.24,26.6,1111122 
NERRS,ioos:station:NOAA.NERRS:gndpcwq:1,2016-01-20T09:00:00Z,30.3486,-88.4185,1.14,26.3,1111122 
NERRS,ioos:station:NOAA.NERRS:gndpcwq:1,2016-01-20T11:00:00Z,30.3486,-88.4185,1.13,26.1,1111122 
NERRS,ioos:station:NOAA.NERRS:gndpcwq:1,2016-01-20T13:00:00Z,30.3486,-88.4185,1.19,26.5,1111122 
NERRS,ioos:station:NOAA.NERRS:gndpcwq:1,2016-01-20T16:00:00Z,30.3486,-88.4185,1.36,26.2,1111122 
NERRS,ioos:station:NOAA.NERRS:gndpcwq:1,2016-01-20T20:00:00Z,30.3486,-88.4185,1.44,25.6,1111122 
NERRS,ioos:station:NOAA.NERRS:gndpcwq:1,2016-01-20T23:00:00Z,30.3486,-88.4185,1.59,24.4,1111122 
NERRS,ioos:station:NOAA.NERRS:gndpcwq:1,2016-01-21T00:00:00Z,30.3486,-88.4185,1.63,23.7,1111122 
NERRS,ioos:station:NOAA.NERRS:gndpcwq:1,2016-01-21T02:00:00Z,30.3486,-88.4185,1.63,23.4,1111122 
NERRS,ioos:station:NOAA.NERRS:gndpcwq:1,2016-01-21T04:00:00Z,30.3486,-88.4185,1.56,22.9,1111122 
NERRS,ioos:station:NOAA.NERRS:gndpcwq:1,2016-01-21T05:00:00Z,30.3486,-88.4185,1.49,22.9,1111122 
NERRS,ioos:station:NOAA.NERRS:gndpcwq:1,2016-01-21T06:00:00Z,30.3486,-88.4185,1.4,23.1,1111122 
NERRS,ioos:station:NOAA.NERRS:gndpcwq:1,2016-01-21T08:00:00Z,30.3486,-88.4185,1.22,22.6,1111122 
NERRS,ioos:station:NOAA.NERRS:gndpcwq:1,2016-01-21T10:00:00Z,30.3486,-88.4185,1.08,22.3,1111122 
NERRS,ioos:station:NOAA.NERRS:gndpcwq:1,2016-01-21T16:00:00Z,30.3486,-88.4185,1.25,17.1,1111122 
NERRS,ioos:station:NOAA.NERRS:gndpcwq:1,2016-01-21T17:00:00Z,30.3486,-88.4185,1.33,17.1,1111122 
NERRS,ioos:station:NOAA.NERRS:gndpcwq:1,2016-01-21T18:00:00Z,30.3486,-88.4185,1.37,17.4,1111122 
NERRS,ioos:station:NOAA.NERRS:gndpcwq:1,2016-01-21T20:00:00Z,30.3486,-88.4185,1.42,17.9,1111122 
NERRS,ioos:station:NOAA.NERRS:gndpcwq:1,2016-01-21T21:00:00Z,30.3486,-88.4185,1.51,18.5,1111122 
NERRS,ioos:station:NOAA.NERRS:gndpcwq:1,2016-01-21T22:00:00Z,30.3486,-88.4185,1.62,16.9,1111122 
NERRS,ioos:station:NOAA.NERRS:gndpcwq:1,2016-01-21T23:00:00Z,30.3486,-88.4185,1.59,17.0,1111122 
NERRS,ioos:station:NOAA.NERRS:gndpcwq:1,2016-01-22T00:00:00Z,30.3486,-88.4185,1.69,17.0,1111122 
NERRS,ioos:station:NOAA.NERRS:gndpcwq:1,2016-01-22T01:00:00Z,30.3486,-88.4185,1.73,16.9,1111122 
NERRS,ioos:station:NOAA.NERRS:gndpcwq:1,2016-01-22T02:00:00Z,30.3486,-88.4185,1.77,17.0,1111122 
NERRS,ioos:station:NOAA.NERRS:gndpcwq:1,2016-01-22T03:00:00Z,30.3486,-88.4185,1.79,16.8,1111122 
NERRS,ioos:station:NOAA.NERRS:gndpcwq:1,2016-01-22T04:00:00Z,30.3486,-88.4185,1.89,16.8,1111122 
NERRS,ioos:station:NOAA.NERRS:gndpcwq:1,2016-01-22T05:00:00Z,30.3486,-88.4185,1.94,16.6,1111122 
NERRS,ioos:station:NOAA.NERRS:gndpcwq:1,2016-01-22T06:00:00Z,30.3486,-88.4185,1.8,16.5,1111122 
NERRS,ioos:station:NOAA.NERRS:gndpcwq:1,2016-01-22T07:00:00Z,30.3486,-88.4185,1.61,16.2,1111122 
NERRS,ioos:station:NOAA.NERRS:gndpcwq:1,2016-01-22T08:00:00Z,30.3486,-88.4185,1.4,15.7,1111122 